Tracking 19574 objects as of 15-Feb-2019
HD Live streaming from Space Station
objects crossing your sky now

SHARC

Track SHARC now!
10-day predictions


NORAD ID: 42712
Int'l Code: 1998-067LT
Perigee: 330.6 km
Apogee: 332.1 km
Inclination: 51.6 °
Period: 91.0 minutes
Semi major axis: 6702 km
RCS: Unknown
Launch date: November 20, 1998
Source: United States (US)
Launch site: TYURATAM MISSILE AND SPACE COMPLEX (TTMTR)
aabbcc
Your satellite tracking list
Your tracking list is empty




NASA's NSSDC Master Catalog

Two Line Element Set (TLE):
1 42712U 98067LT  19045.87927120 +.00074552 +00000-0 +35482-3 0  9999
2 42712 051.6296 203.7008 0001105 317.9056 042.1861 15.82201990099855
Source of the keplerian elements: AFSPC